[[{"header":{"parameterUnit":"m.s-1","parameterCategory":1,"la1":30.2991,"la2":30.254,"lo1":-89.0895,"lo2":-89.0444,"dy":0.0017,"dx":0.0017,"nx":28,"ny":28,"refTime":"2024-07-27T09:00:00:Z","depth":0,"parameterNumber":2,"parameterNumberName":"U-component_of_WINDS"},"data":[0,0,0,0,0,0,0,0,0,0,0,0,0,0,0,0,0,0,0,0,0,0,0,0,0,0,0,0,0,0,0,0,0,0,0,0,0,0,0,0,0,0,0,0,0,0,0,0,0,0,0,0,0,0,0,0,0,0,-0.2445,-0.2446,0,-0.2547,-0.2548,-0.2549,-0.2601,-0.2601,-0.2601,-0.2601,-0.271,-0.2712,-0.2715,0,0,0,0,0,0,0,0,0,0,0,0,0,-0.2302,-0.2304,-0.2445,-0.2447,-0.2448,-0.2546,-0.2548,-0.2549,-0.2601,-0.2601,-0.2601,-0.2601,-0.2709,-0.2712,-0.2716,0,0,0,0,0,0,0,0,0,0,0,0,0,-0.238,-0.2305,-0.2445,-0.2485,-0.249,-0.2546,-0.2548,-0.255,-0.2601,-0.2601,-0.2601,-0.2601,-0.2708,-0.2712,-0.2716,-0.2742,0,0,-0.2729,-0.2731,0,0,0,0,0,0,0,0,-0.2375,-0.2385,-0.2478,-0.2483,-0.2488,-0.2561,-0.2537,-0.2614,-0.2601,-0.2559,-0.2601,-0.2601,-0.2661,-0.2669,-0.2688,-0.2747,-0.2751,-0.273,-0.2732,-0.2734,-0.2735,0,0,0,0,0,0,0,-0.237,-0.2381,-0.2486,-0.2479,-0.2485,-0.25,-0.2511,-0.2552,-0.2608,-0.2562,-0.2566,-0.2577,-0.2663,-0.2683,-0.2691,-0.2753,-0.2729,-0.2733,-0.2736,-0.2738,-0.2839,-0.2839,0,0,0,0,0,0,-0.2357,-0.2376,-0.2482,-0.2489,-0.243,-0.2502,-0.2515,-0.2538,-0.2608,-0.2619,-0.2577,-0.258,-0.2676,-0.2686,-0.2695,-0.273,-0.2734,-0.2738,-0.274,-0.2839,-0.2839,-0.2839,0,0,0,0,0,0,-0.2354,-0.2366,-0.2478,-0.2433,-0.2449,-0.2505,-0.253,-0.254,-0.256,-0.2619,-0.263,-0.2587,-0.2677,-0.2689,-0.2729,-0.2734,-0.274,-0.2744,-0.2839,-0.2839,-0.2839,-0.2799,0,0,0,0,0,0,-0.2349,-0.2364,-0.2374,-0.2433,-0.2451,-0.2509,-0.253,-0.2541,-0.2566,-0.257,-0.2631,-0.2642,-0.2678,-0.2723,-0.2734,-0.274,-0.2747,-0.2838,-0.2839,-0.2839,-0.28,-0.2798,-0.2796,0,0,0,0,0,-0.2344,-0.2359,-0.2374,-0.2386,-0.2463,-0.251,-0.252,-0.256,-0.2567,-0.2577,-0.2615,-0.264,-0.2732,-0.2726,-0.2739,-0.2747,-0.2838,-0.2839,-0.2839,-0.2801,-0.2799,-0.2796,0,0,0,0,0,0,-0.2301,-0.2368,-0.2385,-0.2419,-0.2458,-0.2518,-0.2533,-0.2555,-0.2594,-0.2596,-0.2645,-0.2659,-0.2695,-0.2725,-0.2718,-0.2776,-0.2788,-0.279,-0.2755,-0.2753,-0.275,-0.2743,-0.2751,0,0,0,0,0,-0.2295,-0.2325,-0.2383,-0.2408,-0.2427,-0.2476,-0.2498,-0.2525,-0.2568,-0.2585,-0.2626,-0.2668,-0.2707,-0.2731,-0.277,-0.2805,-0.282,-0.2817,-0.2815,-0.2812,-0.2815,-0.2836,-0.2836,-0.284,-0.284,-0.284,0,0,-0.2284,-0.2324,-0.2341,-0.2401,-0.2434,-0.2466,-0.249,-0.2523,-0.2547,-0.2591,-0.2631,-0.2663,-0.2713,-0.2751,-0.277,-0.2777,-0.2817,-0.2813,-0.2811,-0.2814,-0.2836,-0.2836,-0.2835,-0.284,-0.284,-0.284,0,0,-0.228,-0.2313,-0.2338,-0.237,-0.242,-0.2452,-0.2458,-0.2515,-0.2537,-0.2578,-0.2611,-0.2642,-0.2707,-0.2742,-0.2768,-0.2777,-0.2802,-0.2789,-0.2778,-0.2798,-0.2797,-0.2797,-0.2801,-0.2802,-0.279,-0.279,-0.279,0,-0.2261,-0.2308,-0.2348,-0.2379,-0.2405,-0.2443,-0.247,-0.25,-0.256,-0.2578,-0.2585,-0.2667,-0.2704,-0.2751,-0.2753,-0.2773,-0.2782,-0.2782,-0.2794,-0.2794,-0.2795,-0.2799,-0.28,-0.2788,-0.2789,-0.2789,-0.2789,0,-0.2282,-0.2315,-0.2329,-0.2384,-0.2412,-0.244,-0.2486,-0.2509,-0.2534,-0.2566,-0.2608,-0.2653,-0.2702,-0.2715,-0.274,-0.2766,-0.2769,-0.2784,-0.2797,-0.2792,-0.2797,-0.2799,-0.2786,-0.2786,-0.2787,-0.2787,0,0,-0.2255,-0.2331,-0.2335,-0.2361,-0.2418,-0.2445,-0.2476,-0.2522,-0.2541,-0.2582,-0.261,-0.2663,-0.2678,-0.2708,-0.2737,-0.2755,-0.276,-0.2768,-0.277,-0.2765,-0.2792,-0.278,-0.2781,-0.2776,-0.2776,-0.2777,-0.2787,0,-0.2259,-0.2314,-0.2351,-0.2392,-0.2423,-0.2461,-0.2488,-0.2526,-0.2558,-0.259,-0.2625,-0.2663,-0.2679,-0.2697,-0.2716,-0.2755,-0.2766,-0.2754,-0.2804,-0.2805,-0.279,-0.2783,-0.2771,-0.2779,-0.279,-0.279,-0.279,0,-0.2272,-0.2309,-0.2353,-0.2407,-0.2422,-0.2445,-0.249,-0.252,-0.2565,-0.2587,-0.2619,-0.2649,-0.2685,-0.2694,-0.2744,-0.2736,-0.2758,-0.278,-0.2782,-0.2789,-0.2797,-0.2791,-0.2783,-0.2784,-0.2793,-0.2793,-0.2793,0,-0.2248,-0.231,-0.2344,-0.2364,-0.2428,-0.2444,-0.2471,-0.2516,-0.2542,-0.2582,-0.2599,-0.2643,-0.2668,-0.2702,-0.2743,-0.2746,-0.279,-0.2802,-0.281,-0.2809,-0.2818,-0.2817,-0.2814,-0.2831,-0.2831,-0.2831,-0.2831,0,-0.225,-0.2275,-0.2334,-0.2355,-0.2385,-0.2427,-0.2456,-0.2487,-0.2527,-0.2556,-0.2592,-0.2619,-0.2671,-0.2705,-0.2738,-0.2775,-0.2786,-0.2805,-0.2814,-0.2802,-0.28,-0.2818,-0.2819,-0.2832,-0.2832,-0.2832,-0.2831,0,-0.2229,-0.2268,-0.2308,-0.2364,-0.2379,-0.2399,-0.2448,-0.2471,-0.2503,-0.254,-0.2551,-0.2603,-0.2644,-0.2688,-0.2746,-0.2768,-0.2804,-0.2815,-0.2788,-0.2793,-0.2798,-0.2797,-0.2807,-0.2811,-0.2824,-0.2824,-0.2824,0,-0.2227,-0.2247,-0.2305,-0.2326,-0.2352,-0.2386,-0.2411,-0.2455,-0.248,-0.2533,-0.255,-0.2593,-0.2631,-0.2696,-0.274,-0.2784,-0.2797,-0.2798,-0.2804,-0.2792,-0.2798,-0.2796,-0.2799,-0.2796,-0.2795,-0.2795,-0.2795,0,-0.2221,-0.224,-0.2274,-0.2315,-0.2344,-0.2379,-0.2416,-0.2432,-0.2482,-0.2509,-0.2551,-0.258,-0.2637,-0.2681,-0.273,-0.276,-0.2787,-0.2792,-0.2797,-0.2785,-0.2769,-0.2778,-0.2783,-0.2792,-0.2792,-0.2793,-0.2793,-0.2793,-0.221,-0.223,-0.2274,-0.2311,-0.2343,-0.2376,-0.24,-0.2435,-0.247,-0.2519,-0.2542,-0.2584,-0.263,-0.2699,-0.2728,-0.2763,-0.2771,-0.2777,-0.2779,-0.278,-0.2777,-0.2762,-0.2772,-0.2772,-0.2772,-0.2773,-0.2773,0,-0.2206,-0.2236,-0.227,-0.2319,-0.2349,-0.2368,-0.241,-0.2434,-0.247,-0.2509,-0.2545,-0.2593,-0.2636,-0.2682,-0.2728,-0.2747,-0.276,-0.2757,-0.2757,-0.2764,-0.2767,-0.2759,-0.2746,-0.2746,-0.2746,-0.2746,-0.2746,-0.2746,-0.2208,-0.2242,-0.2266,-0.2317,-0.2347,-0.2387,-0.2409,-0.2441,-0.2472,-0.2524,-0.2559,-0.2588,-0.2631,-0.268,-0.272,-0.2733,-0.2749,-0.2743,-0.2759,-0.2761,-0.2763,-0.2765,-0.2758,-0.2745,-0.2745,-0.2753,-0.2753,-0.2753]},{"header":{"parameterUnit":"m.s-1","parameterCategory":1,"la1":30.2991,"la2":30.254,"lo1":-89.0895,"lo2":-89.0444,"dy":0.0017,"dx":0.0017,"nx":28,"ny":28,"refTime":"2024-07-27T09:00:00:Z","depth":0,"parameterNumber":3,"parameterNumberName":"V-component_of_WINDS"},"data":[0,0,0,0,0,0,0,0,0,0,0,0,0,0,0,0,0,0,0,0,0,0,0,0,0,0,0,0,0,0,0,0,0,0,0,0,0,0,0,0,0,0,0,0,0,0,0,0,0,0,0,0,0,0,0,0,0,0,3.4484,3.4485,0,3.4587,3.4588,3.4589,3.4578,3.4576,3.4574,3.4573,3.4678,3.4682,3.4686,0,0,0,0,0,0,0,0,0,0,0,0,0,3.4276,3.428,3.4484,3.4485,3.4486,3.4587,3.4588,3.4589,3.4578,3.4576,3.4574,3.4572,3.4677,3.4682,3.4687,0,0,0,0,0,0,0,0,0,0,0,0,0,3.4371,3.4281,3.4484,3.4493,3.4495,3.4586,3.4588,3.459,3.4578,3.4576,3.4573,3.4571,3.4675,3.4681,3.4688,3.4777,0,0,3.4707,3.471,0,0,0,0,0,0,0,0,3.4366,3.4379,3.449,3.4492,3.4495,3.4567,3.4553,3.4652,3.4579,3.4547,3.4573,3.457,3.4643,3.4652,3.4677,3.4782,3.4786,3.4708,3.4712,3.4715,3.4717,0,0,0,0,0,0,0,3.4359,3.4374,3.4525,3.4492,3.4494,3.4491,3.4502,3.4572,3.4607,3.4549,3.4549,3.4561,3.4644,3.467,3.4679,3.4788,3.4708,3.4714,3.4718,3.472,3.4968,3.4971,0,0,0,0,0,0,3.4351,3.4369,3.4521,3.4528,3.4423,3.4497,3.4509,3.4546,3.4606,3.4613,3.4563,3.456,3.4661,3.4671,3.4683,3.4789,3.4715,3.4721,3.4724,3.4965,3.4969,3.4972,0,0,0,0,0,0,3.4346,3.4364,3.4517,3.4448,3.4467,3.4503,3.4545,3.4549,3.4576,3.4617,3.4623,3.4584,3.4659,3.4674,3.4753,3.4793,3.4724,3.473,3.4962,3.4966,3.497,3.5004,0,0,0,0,0,0,3.434,3.4363,3.4398,3.4449,3.4471,3.4586,3.4547,3.4553,3.4587,3.4584,3.4638,3.4645,3.4658,3.4743,3.4759,3.48,3.4735,3.4959,3.4964,3.4969,3.4999,3.5008,3.5016,0,0,0,0,0,3.4333,3.4403,3.4399,3.4418,3.4515,3.4588,3.4601,3.4615,3.4591,3.4625,3.4651,3.4643,3.4786,3.4751,3.4769,3.4813,3.4956,3.4963,3.4968,3.4995,3.5006,3.5016,0,0,0,0,0,0,3.4356,3.441,3.4407,3.4496,3.4538,3.4586,3.4631,3.4627,3.4677,3.4672,3.4688,3.47,3.4779,3.4804,3.4765,3.4901,3.4868,3.4878,3.4882,3.4893,3.4901,3.4893,3.474,0,0,0,0,0,3.4372,3.4427,3.4471,3.4546,3.4567,3.4595,3.4628,3.4635,3.4679,3.4696,3.4728,3.4771,3.4825,3.486,3.4913,3.5003,3.5013,3.5041,3.505,3.5057,3.5065,3.5112,3.5125,3.4992,3.4991,3.4991,0,0,3.4404,3.4441,3.4475,3.4551,3.4584,3.464,3.461,3.4671,3.4712,3.4706,3.4782,3.4806,3.4855,3.4939,3.4978,3.4962,3.5104,3.5064,3.507,3.5074,3.512,3.5132,3.5143,3.4996,3.4995,3.4994,0,0,3.4492,3.4526,3.459,3.4624,3.4674,3.4692,3.4708,3.4757,3.4773,3.485,3.4845,3.4894,3.4988,3.5022,3.5051,3.515,3.5143,3.5166,3.5211,3.5257,3.5267,3.5276,3.531,3.5322,3.5175,3.5175,3.5175,0,3.4526,3.461,3.4624,3.4685,3.4718,3.4714,3.4779,3.4811,3.4875,3.4898,3.488,3.4996,3.5028,3.5119,3.5143,3.5168,3.5185,3.516,3.5265,3.5274,3.5283,3.5315,3.5328,3.5177,3.5177,3.5177,3.5176,0,3.4649,3.4707,3.4754,3.4815,3.4854,3.4916,3.4939,3.4976,3.4979,3.4999,3.5076,3.5115,3.5174,3.5196,3.5201,3.5287,3.5276,3.5261,3.5228,3.5298,3.5328,3.534,3.518,3.518,3.5179,3.5178,0,0,3.4755,3.4822,3.4839,3.4866,3.492,3.4965,3.5027,3.5084,3.5115,3.5159,3.521,3.5289,3.5275,3.5308,3.5317,3.5357,3.543,3.5337,3.5338,3.5351,3.5526,3.5536,3.555,3.5426,3.5429,3.5431,3.5521,0,3.4847,3.4956,3.4969,3.5066,3.5119,3.5114,3.5168,3.5206,3.5226,3.5274,3.5295,3.535,3.5328,3.5348,3.5388,3.5413,3.5465,3.5406,3.5473,3.5475,3.546,3.5566,3.5577,3.5661,3.5533,3.5535,3.5537,0,3.4969,3.5015,3.5117,3.5162,3.5184,3.5232,3.5285,3.5331,3.5374,3.5385,3.5422,3.5424,3.5487,3.5451,3.5537,3.5497,3.5525,3.5541,3.5544,3.555,3.5509,3.5573,3.5688,3.57,3.5556,3.5554,3.5553,0,3.5033,3.5122,3.5194,3.5217,3.5272,3.5305,3.5329,3.537,3.5403,3.5449,3.547,3.5523,3.5551,3.5592,3.5608,3.5581,3.5692,3.5658,3.5702,3.5702,3.5725,3.5723,3.5845,3.5745,3.5745,3.5745,3.5745,0,3.5134,3.5196,3.5223,3.5267,3.5336,3.535,3.5417,3.544,3.5476,3.5524,3.5524,3.5568,3.5588,3.5635,3.5648,3.5716,3.573,3.574,3.5742,3.5739,3.5738,3.5757,3.5751,3.5748,3.5748,3.5747,3.5746,0,3.5218,3.5239,3.5316,3.5361,3.5373,3.5422,3.546,3.5502,3.552,3.5581,3.5596,3.5625,3.5681,3.5701,3.5769,3.5778,3.5856,3.5854,3.5841,3.5841,3.5883,3.5879,3.6021,3.6039,3.5929,3.593,3.5931,0,3.528,3.5327,3.5376,3.5408,3.5433,3.5484,3.5517,3.5533,3.5567,3.5618,3.5654,3.5709,3.5754,3.5843,3.587,3.5922,3.5921,3.5967,3.5928,3.5923,3.5919,3.5916,3.592,3.5973,3.5975,3.5976,3.5976,0,3.5387,3.5395,3.5442,3.5493,3.5532,3.5573,3.5613,3.5639,3.566,3.5699,3.5755,3.579,3.5858,3.5913,3.5965,3.599,3.5986,3.5988,3.6001,3.5998,3.5987,3.5992,3.5859,3.5985,3.5984,3.5983,3.5983,3.5982,3.5461,3.5502,3.5542,3.5595,3.5626,3.5663,3.5704,3.5727,3.5774,3.5831,3.5837,3.5897,3.5937,3.6007,3.6034,3.6081,3.6068,3.6087,3.6091,3.6096,3.6098,3.5981,3.6091,3.609,3.609,3.609,3.609,0,3.5567,3.5592,3.5641,3.5695,3.5736,3.5729,3.5772,3.5807,3.586,3.5897,3.5941,3.6005,3.6057,3.6088,3.614,3.6171,3.6171,3.6184,3.6182,3.6187,3.6107,3.609,3.6184,3.6184,3.6184,3.6184,3.6184,3.6183,3.5627,3.5695,3.5707,3.579,3.5815,3.5874,3.5899,3.5932,3.5962,3.6033,3.6076,3.6095,3.613,3.6184,3.6231,3.6239,3.6257,3.6272,3.6278,3.6203,3.6193,3.6184,3.6168,3.6276,3.6276,3.6354,3.6355,3.6355]}]]